TimeEST,TemperatureF,Dew PointF,Humidity,Sea Level PressureIn,VisibilityMPH,Wind Direction,Wind SpeedMPH,Gust SpeedMPH,PrecipitationIn,Events,Conditions,WindDirDegrees,DateUTC
12:53 AM,33.1,18.0,54,30.28,10.0,Calm,Calm,-,N/A,,Overcast,0,2013-02-23 05:53:00
1:53 AM,33.1,19.0,56,30.26,10.0,SSE,4.6,-,N/A,,Overcast,150,2013-02-23 06:53:00
2:53 AM,32.0,21.9,66,30.25,10.0,South,5.8,-,N/A,,Overcast,170,2013-02-23 07:53:00
3:53 AM,33.1,21.0,61,30.23,10.0,Calm,Calm,-,N/A,,Overcast,0,2013-02-23 08:53:00
4:53 AM,32.0,21.0,64,30.23,10.0,South,3.5,-,N/A,,Overcast,170,2013-02-23 09:53:00
5:53 AM,32.0,19.9,61,30.22,10.0,Calm,Calm,-,N/A,,Overcast,0,2013-02-23 10:53:00
6:53 AM,32.0,19.0,59,30.21,10.0,SSE,3.5,-,N/A,,Overcast,150,2013-02-23 11:53:00
7:53 AM,32.0,21.0,64,30.20,10.0,SE,5.8,-,N/A,,Overcast,140,2013-02-23 12:53:00
8:53 AM,33.1,21.9,64,30.20,10.0,Variable,4.6,-,N/A,,Overcast,0,2013-02-23 13:53:00
9:53 AM,34.0,23.0,64,30.17,10.0,Variable,3.5,-,N/A,,Overcast,0,2013-02-23 14:53:00
10:53 AM,34.0,23.0,64,30.16,10.0,SE,3.5,-,N/A,,Overcast,140,2013-02-23 15:53:00
11:27 AM,33.8,24.8,70,30.12,10.0,SSE,6.9,-,N/A,,Overcast,160,2013-02-23 16:27:00
11:53 AM,35.1,25.0,67,30.13,10.0,Calm,Calm,-,N/A,,Overcast,0,2013-02-23 16:53:00
12:09 PM,35.6,24.8,65,30.09,10.0,Calm,Calm,-,N/A,,Overcast,0,2013-02-23 17:09:00
12:53 PM,34.0,27.0,75,30.10,7.0,SSE,4.6,-,0.00,,Overcast,160,2013-02-23 17:53:00
1:03 PM,33.8,26.6,75,30.08,5.0,SE,4.6,-,0.00,Snow,Light Snow,130,2013-02-23 18:03:00
1:38 PM,33.8,26.6,75,30.07,2.0,Calm,Calm,-,0.00,Snow,Light Snow,0,2013-02-23 18:38:00
1:53 PM,34.0,27.0,75,30.10,2.0,ESE,3.5,-,0.00,Snow,Light Snow,120,2013-02-23 18:53:00
2:09 PM,33.8,26.6,75,30.07,4.0,SE,4.6,-,0.00,Snow,Light Snow,130,2013-02-23 19:09:00
2:32 PM,33.8,28.4,81,30.05,2.5,South,3.5,-,0.01,Snow,Light Snow,170,2013-02-23 19:32:00
2:39 PM,33.8,28.4,81,30.06,2.5,South,4.6,-,0.01,Snow,Light Snow,180,2013-02-23 19:39:00
2:41 PM,33.8,28.4,81,30.06,3.0,South,4.6,-,0.01,Snow,Light Snow,170,2013-02-23 19:41:00
2:53 PM,34.0,27.0,75,30.08,8.0,South,6.9,-,0.01,,Overcast,170,2013-02-23 19:53:00
3:48 PM,33.8,28.4,81,30.04,1.8,Calm,Calm,-,0.00,Snow,Light Snow,0,2013-02-23 20:48:00
3:49 PM,34.0,28.0,79,30.06,1.8,Calm,Calm,-,0.00,Snow,Light Snow,0,2013-02-23 20:49:00
4:07 PM,33.8,28.4,81,30.03,3.0,Calm,Calm,-,0.00,Snow,Light Snow,0,2013-02-23 21:07:00
4:34 PM,33.8,30.2,87,30.04,1.8,Calm,Calm,-,0.00,Snow,Light Snow,0,2013-02-23 21:34:00
4:41 PM,33.8,30.2,87,30.03,0.8,Calm,Calm,-,0.00,Snow,Light Snow,0,2013-02-23 21:41:00
4:43 PM,33.8,30.2,87,30.03,1.8,Calm,Calm,-,0.00,Snow,Light Snow,0,2013-02-23 21:43:00
4:53 PM,33.1,30.0,89,30.05,1.8,Calm,Calm,-,0.01,Snow,Light Snow,0,2013-02-23 21:53:00
5:31 PM,33.8,30.2,87,30.01,2.5,Calm,Calm,-,0.00,Snow,Light Snow,0,2013-02-23 22:31:00
5:38 PM,33.8,30.2,87,30.01,5.0,Calm,Calm,-,0.00,,Overcast,0,2013-02-23 22:38:00
5:53 PM,33.1,30.0,89,30.04,7.0,Calm,Calm,-,0.00,,Overcast,0,2013-02-23 22:53:00
6:53 PM,32.0,30.0,92,30.03,5.0,Calm,Calm,-,0.00,,Overcast,0,2013-02-23 23:53:00
7:17 PM,32.0,30.2,93,29.99,2.5,Calm,Calm,-,0.01,Snow,Light Snow,0,2013-02-24 00:17:00
7:24 PM,32.0,30.2,93,30.00,3.0,Calm,Calm,-,0.01,Snow,Light Snow,0,2013-02-24 00:24:00
7:53 PM,32.0,28.9,88,30.01,3.0,Calm,Calm,-,0.01,Snow,Light Snow,0,2013-02-24 00:53:00
8:00 PM,32.0,28.4,87,29.98,2.5,Calm,Calm,-,0.00,Snow,Light Snow,0,2013-02-24 01:00:00
8:07 PM,32.0,28.4,87,29.98,3.0,Calm,Calm,-,0.00,Snow,Light Snow,0,2013-02-24 01:07:00
8:15 PM,32.0,28.4,87,29.98,1.8,Calm,Calm,-,0.01,Snow,Light Snow,0,2013-02-24 01:15:00
8:23 PM,33.8,30.2,87,29.99,0.8,Calm,Calm,-,0.02,Snow,Light Snow,0,2013-02-24 01:23:00
8:33 PM,33.8,30.2,87,29.99,1.2,Calm,Calm,-,0.02,Snow,Light Snow,0,2013-02-24 01:33:00
8:37 PM,32.0,30.2,93,29.98,1.0,Calm,Calm,-,0.03,Snow,Light Snow,0,2013-02-24 01:37:00
8:48 PM,32.0,30.2,93,29.98,1.2,Calm,Calm,-,0.03,Snow,Light Snow,0,2013-02-24 01:48:00
8:53 PM,32.0,30.0,92,30.00,1.2,Calm,Calm,-,0.03,Snow,Light Snow,0,2013-02-24 01:53:00
9:08 PM,32.0,28.4,87,29.98,0.8,Calm,Calm,-,0.00,,Overcast,0,2013-02-24 02:08:00
9:19 PM,32.0,30.2,93,29.97,1.2,Calm,Calm,-,0.00,,Overcast,0,2013-02-24 02:19:00
9:27 PM,32.0,30.2,93,29.97,1.2,Calm,Calm,-,0.00,,Overcast,0,2013-02-24 02:27:00
9:53 PM,32.0,30.0,92,29.99,1.0,Calm,Calm,-,0.01,Snow,Light Snow,0,2013-02-24 02:53:00
10:10 PM,32.0,30.2,93,29.95,0.8,Calm,Calm,-,0.01,Snow,Light Snow,0,2013-02-24 03:10:00
10:26 PM,32.0,30.2,93,29.94,1.2,NNE,3.5,-,0.01,Snow,Light Snow,20,2013-02-24 03:26:00
10:38 PM,32.0,30.2,93,29.93,2.0,NNE,3.5,-,0.02,Snow,Light Snow,30,2013-02-24 03:38:00
10:53 PM,32.0,30.0,92,29.95,3.0,Calm,Calm,-,0.02,Snow,Light Snow,0,2013-02-24 03:53:00
11:13 PM,32.0,30.2,93,29.93,2.5,Calm,Calm,-,0.00,Snow,Light Snow,0,2013-02-24 04:13:00
11:32 PM,32.0,30.2,93,29.93,4.0,Calm,Calm,-,0.00,,Overcast,0,2013-02-24 04:32:00
11:43 PM,32.0,30.2,93,29.92,4.0,Calm,Calm,-,0.00,,Overcast,0,2013-02-24 04:43:00
11:53 PM,32.0,30.0,92,29.95,4.0,Calm,Calm,-,0.00,,Overcast,0,2013-02-24 04:53:00